TimeCST,TemperatureF,Dew PointF,Humidity,Sea Level PressureIn,VisibilityMPH,Wind Direction,Wind SpeedMPH,Gust SpeedMPH,PrecipitationIn,Events,Conditions,WindDirDegrees,DateUTC
12:15 AM,32.4,29.8,90,30.28,10.0,WNW,8.1,-,N/A,,Clear,290,2013-11-07 06:15:00
12:35 AM,32.0,29.3,90,30.29,10.0,West,9.2,-,N/A,,Clear,280,2013-11-07 06:35:00
12:55 AM,31.8,28.9,89,30.30,10.0,West,6.9,-,N/A,,Clear,280,2013-11-07 06:55:00
1:15 AM,31.6,28.9,90,30.29,10.0,West,8.1,-,N/A,,Clear,280,2013-11-07 07:15:00
1:35 AM,31.1,28.4,90,30.29,10.0,West,6.9,-,N/A,,Clear,280,2013-11-07 07:35:00
1:55 AM,31.1,28.6,90,30.30,10.0,West,6.9,-,N/A,,Clear,280,2013-11-07 07:55:00
2:15 AM,30.6,27.9,90,30.30,10.0,West,6.9,-,N/A,,Clear,280,2013-11-07 08:15:00
2:35 AM,30.7,28.2,90,30.30,10.0,West,5.8,-,N/A,,Clear,260,2013-11-07 08:35:00
2:55 AM,31.5,28.8,90,30.30,10.0,West,6.9,-,N/A,,Clear,270,2013-11-07 08:55:00
3:15 AM,31.8,28.6,88,30.30,10.0,West,5.8,-,N/A,,Clear,270,2013-11-07 09:15:00
3:35 AM,30.6,27.5,88,30.30,10.0,West,5.8,-,N/A,,Clear,260,2013-11-07 09:35:00
3:55 AM,30.9,28.0,89,30.30,10.0,West,5.8,-,N/A,,Clear,260,2013-11-07 09:55:00
4:15 AM,30.7,28.2,90,30.30,10.0,WSW,6.9,-,N/A,,Clear,250,2013-11-07 10:15:00
4:35 AM,30.7,28.4,91,30.30,10.0,WSW,4.6,-,N/A,,Clear,240,2013-11-07 10:35:00
4:55 AM,30.0,27.5,90,30.29,10.0,WSW,4.6,-,N/A,,Clear,240,2013-11-07 10:55:00
5:15 AM,29.3,27.3,92,30.30,10.0,WSW,4.6,-,N/A,,Clear,240,2013-11-07 11:15:00
5:35 AM,30.2,28.4,93,30.30,10.0,WSW,6.9,-,N/A,,Clear,250,2013-11-07 11:35:00
5:55 AM,31.1,29.1,92,30.30,10.0,WSW,5.8,-,N/A,,Clear,250,2013-11-07 11:55:00
6:15 AM,30.2,28.2,92,30.30,10.0,SW,5.8,-,N/A,,Clear,230,2013-11-07 12:15:00
6:35 AM,30.2,28.2,92,30.31,10.0,SW,5.8,-,N/A,,Clear,230,2013-11-07 12:35:00
6:55 AM,29.8,28.2,94,30.31,10.0,SW,5.8,-,N/A,,Clear,220,2013-11-07 12:55:00
7:15 AM,31.6,29.8,93,30.32,10.0,SW,6.9,-,N/A,,Clear,230,2013-11-07 13:15:00
7:35 AM,32.9,31.3,94,30.33,10.0,SW,6.9,-,N/A,,Clear,230,2013-11-07 13:35:00
7:55 AM,34.7,32.0,90,30.33,10.0,SW,8.1,-,N/A,,Mostly Cloudy,230,2013-11-07 13:55:00
8:15 AM,35.1,32.0,89,30.34,10.0,SW,6.9,-,N/A,,Overcast,230,2013-11-07 14:15:00
8:35 AM,36.1,32.9,88,30.33,10.0,SW,5.8,-,N/A,,Overcast,230,2013-11-07 14:35:00
8:55 AM,38.5,34.0,84,30.33,10.0,SW,8.1,-,N/A,,Mostly Cloudy,230,2013-11-07 14:55:00
9:15 AM,40.5,35.2,82,30.32,10.0,SW,9.2,-,N/A,,Scattered Clouds,220,2013-11-07 15:15:00
9:35 AM,42.8,35.8,76,30.31,10.0,WSW,9.2,-,N/A,,Mostly Cloudy,240,2013-11-07 15:35:00
9:55 AM,44.8,36.9,74,30.31,10.0,WSW,11.5,-,N/A,,Mostly Cloudy,250,2013-11-07 15:55:00
10:15 AM,45.0,37.2,74,30.31,10.0,WSW,13.8,17.3,N/A,,Mostly Cloudy,250,2013-11-07 16:15:00
10:35 AM,46.4,37.8,72,30.30,10.0,WSW,15.0,20.7,N/A,,Clear,250,2013-11-07 16:35:00
10:55 AM,47.7,38.7,71,30.30,10.0,WSW,13.8,-,N/A,,Clear,250,2013-11-07 16:55:00
11:15 AM,49.1,39.2,69,30.30,10.0,West,16.1,21.9,N/A,,Clear,260,2013-11-07 17:15:00
11:35 AM,49.6,38.1,65,30.30,10.0,West,17.3,21.9,N/A,,Clear,270,2013-11-07 17:35:00
11:55 AM,49.6,37.0,62,30.29,10.0,West,18.4,24.2,N/A,,Clear,280,2013-11-07 17:55:00
12:15 PM,50.2,36.9,60,30.29,10.0,WNW,18.4,-,N/A,,Clear,290,2013-11-07 18:15:00
12:35 PM,50.2,35.1,56,30.29,10.0,West,20.7,25.3,N/A,,Clear,280,2013-11-07 18:35:00
12:55 PM,50.2,35.4,57,30.29,10.0,West,20.7,25.3,N/A,,Clear,280,2013-11-07 18:55:00
1:15 PM,50.2,35.6,57,30.28,10.0,WNW,15.0,19.6,N/A,,Clear,290,2013-11-07 19:15:00
1:35 PM,50.9,34.3,53,30.28,10.0,West,16.1,-,N/A,,Clear,270,2013-11-07 19:35:00
1:55 PM,50.5,33.6,52,30.28,10.0,NW,13.8,18.4,N/A,,Scattered Clouds,320,2013-11-07 19:55:00
2:15 PM,49.6,32.5,52,30.29,10.0,NW,16.1,-,N/A,,Clear,320,2013-11-07 20:15:00
2:35 PM,49.3,31.1,50,30.29,10.0,NW,16.1,-,N/A,,Clear,320,2013-11-07 20:35:00
2:55 PM,49.3,31.6,51,30.29,10.0,NW,13.8,-,N/A,,Clear,310,2013-11-07 20:55:00
3:15 PM,49.3,31.6,51,30.29,10.0,NW,11.5,-,N/A,,Clear,310,2013-11-07 21:15:00
3:35 PM,49.3,32.0,51,30.30,10.0,NW,13.8,-,N/A,,Clear,310,2013-11-07 21:35:00
3:55 PM,48.7,31.8,52,30.30,10.0,NW,12.7,-,N/A,,Clear,310,2013-11-07 21:55:00
4:15 PM,48.2,32.0,54,30.30,10.0,NW,9.2,-,N/A,,Clear,310,2013-11-07 22:15:00
4:55 PM,44.2,32.0,62,30.30,10.0,NW,5.8,-,N/A,,Clear,320,2013-11-07 22:55:00
5:15 PM,42.1,32.0,67,30.31,10.0,NW,5.8,-,N/A,,Clear,320,2013-11-07 23:15:00
5:35 PM,41.4,31.6,68,30.31,10.0,NW,4.6,-,N/A,,Clear,310,2013-11-07 23:35:00
5:55 PM,40.6,31.8,71,30.31,10.0,NW,3.5,-,N/A,,Clear,320,2013-11-07 23:55:00
6:15 PM,36.9,30.7,79,30.31,10.0,Calm,Calm,-,N/A,,Clear,0,2013-11-08 00:15:00
6:35 PM,37.6,32.0,80,30.32,10.0,WNW,3.5,-,N/A,,Clear,290,2013-11-08 00:35:00
6:55 PM,34.0,30.0,85,30.32,10.0,West,3.5,-,N/A,,Clear,260,2013-11-08 00:55:00
7:15 PM,35.2,31.1,85,30.32,10.0,West,5.8,-,N/A,,Clear,260,2013-11-08 01:15:00
7:35 PM,34.3,30.7,87,30.32,10.0,West,6.9,-,N/A,,Clear,270,2013-11-08 01:35:00
7:55 PM,35.2,30.2,82,30.32,10.0,West,8.1,-,N/A,,Clear,280,2013-11-08 01:55:00
8:15 PM,34.9,30.2,83,30.32,10.0,West,5.8,-,N/A,,Clear,280,2013-11-08 02:15:00
8:35 PM,34.3,30.0,84,30.32,10.0,West,8.1,-,N/A,,Clear,280,2013-11-08 02:35:00
8:55 PM,33.8,30.0,86,30.33,10.0,West,9.2,-,N/A,,Clear,280,2013-11-08 02:55:00
9:15 PM,35.6,30.9,83,30.33,10.0,West,9.2,-,N/A,,Clear,270,2013-11-08 03:15:00
9:35 PM,34.5,30.4,85,30.33,10.0,West,5.8,-,N/A,,Clear,280,2013-11-08 03:35:00
9:55 PM,34.5,31.1,87,30.33,10.0,West,8.1,-,N/A,,Clear,280,2013-11-08 03:55:00
10:15 PM,34.3,30.7,87,30.33,10.0,WNW,8.1,-,N/A,,Clear,290,2013-11-08 04:15:00
10:35 PM,33.6,30.2,87,30.33,10.0,WNW,6.9,-,N/A,,Clear,290,2013-11-08 04:35:00
10:55 PM,35.6,31.5,85,30.33,10.0,West,8.1,-,N/A,,Clear,270,2013-11-08 04:55:00
11:15 PM,33.8,30.2,87,30.33,10.0,West,9.2,-,N/A,,Clear,280,2013-11-08 05:15:00
11:35 PM,34.0,30.6,87,30.33,10.0,West,8.1,-,N/A,,Clear,280,2013-11-08 05:35:00
11:55 PM,33.3,30.2,89,30.33,10.0,West,5.8,-,N/A,,Clear,280,2013-11-08 05:55:00